This demonstration page uses our WeatherBlox Daily Observations layout. Learn more.

Left ArrowRight Arrow

39.12711, -84.51439

Hourly Observations for August 26, 2016

Temp ( °F °C ) Dew Point ( °F °C ) Humidity (%) Winds ( mph kmh ) Pressure ( in mb ) Visibility ( mi km ) Precip ( " mm )
12:53 am 00:53 Clear 73 22.8 73 22.8 100 100 N N/A 30.07 1018 7 11 N/A
1:53 am 01:53 Clear 72 22.2 72 22.2 100 100 N N/A 30.08 1019 7 11 N/A
2:53 am 02:53 Clear with Mist and Fog 72 22.2 72 22.2 100 100 N N/A 30.08 1019 5 8 N/A
3:06 am 03:06 Clear with Mist and Fog 72 22 72 22 100 100 N N/A 30.06 1018 1 2 N/A
3:08 am 03:08 Mostly Cloudy with Fog 71 21.7 71 21.7 100 100 N N/A 30.06 1018 1 1 N/A
3:20 am 03:20 Clear with Mist and Fog 72 22 72 22 100 100 N N/A 30.06 1018 3 4 N/A
3:42 am 03:42 Clear with Mist and Fog 72 22 72 22 100 100 N N/A 30.06 1018 2 3 N/A
3:47 am 03:47 Clear with Mist and Fog 72 22 72 22 100 100 N N/A 30.06 1018 3 5 N/A
3:53 am 03:53 Clear with Mist and Fog 72 22.2 72 22.2 100 100 N N/A 30.09 1019 4 6 N/A
4:07 am 04:07 Clear with Mist and Fog 71 21.7 71 21.7 100 100 N N/A 30.06 1018 3 4 N/A
4:17 am 04:17 Clear with Mist and Fog 71 21.7 71 21.7 100 100 N N/A 30.06 1018 1 2 N/A
4:29 am 04:29 Clear with Mist and Fog 71 21.7 71 21.7 100 100 N N/A 30.06 1018 2 3 N/A
4:45 am 04:45 Clear with Mist and Fog 71 21.7 71 21.7 100 100 N N/A 30.06 1018 4 6 N/A
4:53 am 04:53 Clear with Mist and Fog 71 21.7 71 21.7 100 100 N N/A 30.09 1019 4 6 N/A
4:58 am 04:58 Clear with Mist and Fog 70 21 70 21 100 100 N N/A 30.09 1019 2 2 N/A
5:01 am 05:01 Mostly Cloudy with Fog 70 21.1 70 21.1 100 100 N N/A 30.06 1018 1 1 N/A
5:09 am 05:09 Mostly Cloudy with Fog 70 21.1 70 21.1 100 100 N N/A 30.06 1018 0 0 N/A
5:15 am 05:15 Mostly Cloudy with Mist and Fog 71 21.7 71 21.7 100 100 N N/A 30.06 1018 1 2 N/A
5:22 am 05:22 Mostly Clear with Mist and Fog 70 21 70 21 100 100 N N/A 30.06 1018 2 3 N/A
5:37 am 05:37 Clear with Mist and Fog 71 21.7 71 21.7 100 100 N N/A 30.06 1018 1 1 N/A
6:26 am 06:26 Clear with Mist and Fog 70 21 70 21 100 100 N N/A 30.09 1019 1 2 N/A
6:30 am 06:30 Clear with Mist and Fog 70 21 70 21 100 100 N N/A 30.09 1019 3 5 N/A
6:41 am 06:41 Clear with Mist and Fog 70 21.1 70 21.1 100 100 N N/A 30.09 1019 1 2 N/A
6:48 am 06:48 Clear with Fog 70 21 70 21 100 100 N N/A 30.09 1019 0 0 N/A
6:53 am 06:53 Clear with Patchy Fog 70 21.1 70 21.1 100 100 N N/A 30.10 1019 4 6 N/A
8:17 am 08:17 Sunny with Mist and Fog 73 23 73 23 100 100 N N/A 30.09 1019 4 6 N/A
8:53 am 08:53 Sunny with Mist and Fog 76 24.4 74 23.3 94 94 N N/A 30.14 1021 6 10 N/A
9:53 am 09:53 Sunny 80 26.7 74 23.3 82 82 N N/A 30.14 1021 9 14 N/A
10:53 am 10:53 Sunny 83 28.3 76 24.4 79 79 N N/A 30.14 1021 9 14 N/A
11:52 am 11:52 Partly Cloudy 84 29 75 24 74 74 SW 7 11 30.12 1020 10 16 N/A
12:52 pm 12:52 Partly Cloudy 88 31 75 24 66 66 S 5 7 30.09 1019 10 16 N/A
1:52 pm 13:52 Mostly Cloudy 90 32 75 24 63 63 undefined N/A 30.06 1018 10 16 N/A
2:52 pm 14:52 Partly Cloudy 90 32 75 24 63 63 undefined N/A 30.03 1017 10 16 N/A
2:53 pm 14:53 Partly Cloudy 90 32.2 75 23.9 62 62 SSW 6 9 30.08 1019 10 16 N/A
3:52 pm 15:52 Mostly Cloudy 88 31 75 24 66 66 SSW 5 7 30.03 1017 10 16 N/A
3:53 pm 15:53 Mostly Cloudy 90 32.2 75 23.9 62 62 S 6 9 30.05 1018 10 16 N/A
4:53 pm 16:53 Mostly Cloudy 90 32.2 75 23.9 62 62 SSW 8 13 30.05 1018 10 16 N/A
5:53 pm 17:53 Partly Cloudy with Nearby Thunderstorms 85 29.4 75 23.9 72 72 E 12 19 30.06 1018 10 16 N/A
6:09 pm 18:09 Partly Cloudy with Thunderstorms 84 29 73 23 70 70 E 7 11 30.03 1017 10 16 N/A
8:23 pm 20:23 Mostly Clear 81 27.2 73 22.8 77 77 WNW 8 13 30.06 1018 10 16 N/A
8:30 pm 20:30 Mostly Clear with Nearby Thunderstorms 81 27.2 73 22.8 77 77 VRB 6 9 30.09 1019 10 16 N/A
8:53 pm 20:53 Clear with Nearby Thunderstorms 79 26.1 74 23.3 85 85 NNE 3 6 30.10 1019 9 14 N/A

Powered by AerisWeather